Weather in Plesetsk

Russia / Arkhangel'skaya Oblast'     62°42′33″N   40°17′06″E
temp.,
°C
wind,
m/s
gust,
m/s
humid.,
%
clouds,
%
prec.,
mm/h
press.,
hPa
HPBL,
m
13 august, sat
sat1300:00+11w23774 0.0 101945
03:00+9wsw22785 0.0 102022
06:00+11sw26805 0.0 1020157
09:00+17wsw35560 0.0 1020787
12:00+20wnw35405 0.0 10201911
15:00+20nnw4539100 0.0 10202080
18:00+18n35476 0.0 1021747
21:00+12nne226963 0.0 102231
14 august, sun
sun1400:00+9e228157 0.0 102327
03:00+8se118039 0.0 102411
06:00+10se117269 0.0 102448
09:00+16ssw125087 0.0 1024495
12:00+20sw224194 0.0 10231393
15:00+21wsw13395 0.0 10221283
18:00+21sw11515 0.0 102166
21:00+15s22665 0.0 102221
15 august, mon
mon1500:00+13ssw25735 0.0 102274
03:00+11sw25786 0.0 102279
06:00+13sw25735 0.0 1023105
09:00+19wsw24515 0.0 1023361
12:00+24w23455 0.0 10231090
15:00+25w12429 0.0 10231793
18:00+24ssw11555 0.0 102323
21:00+18sse22697 0.0 102419
16 august, tue
tue1600:00+16s237215 0.0 102456
03:00+14s247873 0.0 102564
06:00+15s2577100 0.0 1024107
09:00+21ssw2459100 0.0 1024312
12:00+25ssw234987 0.0 1024890
15:00+27wsw244123 0.0 10231727
18:00+25sw22557 0.0 102271
21:00+19s257765 0.0 102284
17 august, wed
wed1700:00+17ssw378359 0.0 1023137
03:00+16ssw268999 0.0 1022122
06:00+17ssw3784100 0.0 1022173
09:00+23ssw365896 0.0 1021407
12:00+27sw4544100 0.0 10211213
15:00+28wsw3540100 0.0 10201912
18:00+26s245437 0.0 1019109
21:00+22ssw266499 0.0 1019129